Regional Weather Roundup
Issued by NWS

Home | Current Version | Previous Version | Graphics & Text | Print | Product List | Glossary On
Versions: 1 2 3 4 5 6 7 8 9 10 11 12 13 14 15 16 17 18 19 20 21 22 23 24 25 26 27 28 29 30 31 32 33 34 35 36 37 38 39 40 41 42 43 44 45 46 47 48 49 50
000
ASUS43 KMKX 250420
RWRWI

WISCONSIN REGIONAL WEATHER ROUNDUP
NATIONAL WEATHER SERVICE MILWAUKEE/SULLIVAN WI
1100 PM CDT WED MAY 24 2017

NOTE: "FAIR" INDICATES FEW OR NO CLOUDS BELOW 12,000 FEET WITH NO
SIGNIFICANT WEATHER AND/OR OBSTRUCTIONS TO VISIBILITY.

WIZ001-002-006>008-014>016-023>028-250500-
NORTHWEST WISCONSIN

CITY           SKY/WX    TMP DP  RH WIND       PRES   REMARKS
SUPERIOR ARPT  NOT AVBL
ASHLAND        CLEAR     41  39  93 NE3       29.77F
HAYWARD        MOCLDY    49  44  83 N5        29.75S
SIREN          CLOUDY    55  46  71 CALM      29.73S
CUMBERLAND     CLOUDY    52  45  76 CALM      29.74R
RICE LAKE      CLOUDY    55  48  77 CALM      29.75R
CHETEK         CLOUDY    53  48  83 CALM      29.74R
LADYSMITH      CLOUDY    50  47  88 NE3       29.75S
EAU CLAIRE     CLOUDY    52  49  89 CALM      29.72R
MENOMONIE      CLOUDY    55  49  82 CALM      29.73S
NEW RICHMOND   CLOUDY    54  46  76 E5        29.72S
OSCEOLA        CLOUDY    53  49  89 CALM      29.75S
$$

WIZ003>005-009-010-017-018-250500-
NORTH CENTRAL WISCONSIN

CITY           SKY/WX    TMP DP  RH WIND       PRES   REMARKS
MANITOWISH WTR CLOUDY    51  47  89 NE5       29.74F
ARBOR VITAE    CLOUDY    53  48  82 CALM      29.74S
WOODRUFF       CLOUDY    53  48  82 CALM      29.74S
RHINELANDER    CLOUDY    53  49  86 NE5       29.74S
EAGLE RIVER    CLOUDY    51  45  80 E5        29.74S
LAND O LAKES   CLOUDY    51  46  82 E3        29.77R
PHILLIPS       CLOUDY    50  48  91 CALM      29.74S
TOMAHAWK       CLOUDY    51  47  86 CALM      29.74S
MEDFORD        CLOUDY    51  47  87 NE3       29.73R
MERRILL        CLOUDY    52  49  90 NE5       29.73S
$$

WIZ029-030-035-036-043>047-250500-
CENTRAL WISCONSIN

CITY           SKY/WX    TMP DP  RH WIND       PRES   REMARKS
WAUSAU         CLOUDY    53  49  86 NE7       29.70F
MOSINEE        MOCLDY    50  50 100 NE6       29.72F
MARSHFIELD     CLEAR     50  47  89 CALM      29.71S
STEVENS POINT  CLOUDY    49  49 100 CALM      29.71F
WAUPACA        CLOUDY    55  51  87 N5        29.70S
WAUTOMA        CLOUDY    53  50  89 N8        29.70S
WISC RAPIDS    CLOUDY    54  49  83 NE6       29.72S
CAMP DOUGLAS   CLOUDY    52  50  93 CALM      29.71R
$$

WIZ011>013-019>022-031-037>040-048>050-250500-
NORTHEAST WISCONSIN

CITY           SKY/WX    TMP DP  RH WIND       PRES   REMARKS
ANTIGO         CLOUDY    47  47 100 N6        29.73S
SHAWANO        CLOUDY    55  51  85 N10       29.71S
OCONTO         CLOUDY    51  49  92 N6        29.69F
STURGEON BAY   CLOUDY    50  49  96 N9        29.69S
GREEN BAY      MOCLDY    53  52  96 N13       29.68S
MANITOWOC      MOCLDY    52  49  89 N14G21    29.65S
APPLETON       CLOUDY    52  50  93 NE13      29.66F
CLINTONVILLE   CLOUDY    52  50  93 N6        29.70S
OSHKOSH        CLOUDY    54  49  83 NE12      29.66S
$$

WIZ032>034-041-042-053>061-250500-
SOUTHWEST WISCONSIN

CITY           SKY/WX    TMP DP  RH WIND       PRES   REMARKS
LA CROSSE      CLOUDY    57  51  80 E5        29.70S
SPARTA         PTCLDY    51  49  95 CALM      29.72S
VIROQUA        CLOUDY    52  51  97 MISG      29.70S
BOSCOBEL       PTCLDY    53  50  89 CALM      29.69S
PRAIRIE DU CHI PTCLDY    53  49  87 CALM      29.70R
PLATTEVILLE    CLOUDY    54  54  99 N7        29.67S
$$

WIZ056-057-062-063-064-067-068-250500-
SOUTH CENTRAL WISCONSIN

CITY           SKY/WX    TMP DP  RH WIND       PRES   REMARKS
REEDSBURG      CLOUDY    53  51  94 N7        29.69S
BARABOO/DELLS  CLOUDY    53  48  84 N5        29.69S
LONE ROCK      CLOUDY    56  49  77 N7        29.69R
MINERAL POINT  CLEAR     52  52 100 N7        29.68R
MADISON        CLOUDY    53  50  89 N9        29.66R
MIDDLETON      CLOUDY    54  51  89 N7        29.67S
WATERTOWN      MOCLDY    52  52 100 N6        29.64S
MONROE         CLOUDY    52  50  93 N10       29.64S
JANESVILLE     MOCLDY    54  52  94 N6        29.63S
$$

WIZ051-052-058>065-066-070>072-250500-
SOUTHEAST WISCONSIN

CITY           SKY/WX    TMP DP  RH WIND       PRES   REMARKS
MILWAUKEE      CLOUDY    55  51  86 N13G23    29.60S
WAUKESHA       PTCLDY    50  48  93 N7        29.62F
MILWAUKEE/TIMM   N/A     54  46  76 N9        29.61F
RACINE         CLOUDY    52  48  86 N18G28    29.61F
KENOSHA        CLOUDY    55  50  83 N13G18    29.59F
FOND DU LAC    CLOUDY    54  49  83 N13G21    29.66S
SHEBOYGAN      CLOUDY    52  51  97 N8        29.63S
WEST BEND      CLOUDY    52  50  93 N5        29.63S
JUNEAU         CLOUDY    52  50  92 N10       29.66R
$$

LSZ147-162-250500-
LAKE SUPERIOR

STATION/POSITION TIME  TEMP    WIND        PRES    WAVE
                       AIR SEA DIR/SP/G            HT/PER
                 (UTC) (F)     (DEG/KT/KT) (MB)    (FT/S)
$$

LMZ867-665-643>646-250500-
LAKE MICHIGAN

STATION/POSITION TIME  TEMP    WIND        PRES    WAVE
                       AIR SEA DIR/SP/G            HT/PER
                 (UTC) (F)     (DEG/KT/KT) (MB)    (FT/S)
$$

TC  - TEMPERATURE IN CELSIUS
VSB - VISIBILITY IN STATUTE MILES
WCI - WIND CHILL INDEX
HX  - HEAT INDEX





USA.gov is the U.S. government's official web portal to all federal, state and local government web resources and services.